Content
SEND FEEDBACK

Daily
Averages
Monthly
Summary
United States of America

INARAJAN, GUAM


Home > North America > United States > Guam
Elevation: 280 feet     Latitude: 13 18N     Longitude: 144 44E

WEATHER
 
SELECT A DAY
Number of Records: 354,649;   Date Range: 1/1/95 - 11/25/14
 
SHARE

PRINT THIS DATA

[ ← Previous Day ]
WEATHER ALMANAC - FEBRUARY 24, 2014
[ Next Day → ]
[ °C ]   °F
Weather ElementAverageHighLow
Temperature78.9 °F83.1 °F (10:58 am)75.2 °F (5:40 am)
Dewpoint72.3 °F77 °F (5:25 am) (7:00 pm)
Humidity88.3 %100 % (5:25 am)78 % (10:58 am)
Barometer29.86 in29.91 in (9:41 am)29.79 in (2:58 pm)
Wind Speed14.2 mph20.7 mph (12:42 pm)
Wind Gust27.6 mph (2:03 pm)
Weather ElementAverage
Visibility9.8 mi
Wind DirectionENE (52 °)

Weather ElementTotal
Precipitation0.10 in
Cooling Degree Days14.2 (Base 65)
Growing Degree Days29.2 (Base 50)
Averaged from 80 records on February 24, 2014
WEATHER CONDITIONS BREAKOUT
WIND DIRECTION BREAKOUT
WEATHER BY HOUR - FEBRUARY 24, 2014
[ °C ]   °F
Local TimeTemperatureDewpointHumidityBarometerVisibilityWind DirectionWind SpeedGust SpeedPrecipitationEventsConditions
12:43 AM77.0 °F75.2 °F94 %29.87 in10.0 miNE (50°)11.5 mphMostly Cloudy
12:58 AM77.7 °F76.1 °F95 %29.84 in10.0 miENE (60°)16.1 mph20.7 mphMostly Cloudy
1:03 AM77.0 °F75.2 °F94 %29.87 in10.0 miENE (60°)11.5 mph20.7 mphMostly Cloudy
1:08 AM77.0 °F75.2 °F94 %29.87 in10.0 miENE (60°)12.7 mph20.7 mphScattered Clouds
1:21 AM77.0 °F75.2 °F94 %29.86 in8.0 miENE (60°)10.4 mphRainRain
1:31 AM77.0 °F75.2 °F94 %29.86 in10.0 miENE (60°)10.4 mphRainLight Rain
1:32 AM77.0 °F75.2 °F94 %29.86 in10.0 miENE (60°)12.7 mphMostly Cloudy
1:37 AM77.0 °F75.2 °F94 %29.86 in10.0 miENE (60°)13.8 mphScattered Clouds
1:58 AM76.8 °F75.2 °F95 %29.82 in10.0 miENE (60°)12.7 mph0.00 inScattered Clouds
2:08 AM77.0 °F75.2 °F94 %29.85 in10.0 miENE (60°)12.7 mphMostly Cloudy
2:23 AM77.0 °F75.2 °F94 %29.84 in10.0 miENE (60°)11.5 mphScattered Clouds
2:58 AM76.5 °F74.1 °F92 %29.81 in10.0 miENE (60°)12.7 mphPartly Cloudy
3:58 AM76.5 °F75.9 °F98 %29.81 in10.0 miENE (60°)12.7 mphScattered Clouds
4:58 AM76.5 °F74.5 °F94 %29.81 in10.0 miENE (60°)11.5 mphClear
5:08 AM77.0 °F75.2 °F94 %29.84 in10.0 miENE (60°)11.5 mphRainLight Rain
5:17 AM77.0 °F75.2 °F94 %29.84 in10.0 miNE (50°)10.4 mphScattered Clouds
5:25 AM77.0 °F77.0 °F100 %29.84 in8.0 miNE (40°)13.8 mph19.6 mphRainLight Rain
5:30 AM77.0 °F77.0 °F100 %29.85 in6.0 miNE (50°)11.5 mph19.6 mphRainLight Rain
5:35 AM77.0 °F77.0 °F100 %29.85 in7.0 miNE (50°)12.7 mphRainLight Rain
5:40 AM75.2 °F75.2 °F100 %29.85 in8.0 miNE (40°)13.8 mph17.3 mphRainLight Rain
5:45 AM77.0 °F0.0 °F29.85 in8.0 miNE (50°)15.0 mph21.9 mphRainLight Rain
5:50 AM77.0 °F0.0 °F29.85 in10.0 miNE (50°)15.0 mph21.9 mphLight Drizzle
5:52 AM75.2 °F0.0 °F29.85 in10.0 miNE (50°)13.8 mph21.9 mphMostly Cloudy
5:57 AM77.0 °F75.2 °F94 %29.85 in10.0 miENE (60°)12.7 mphScattered Clouds
5:58 AM76.1 °F75.9 °F99 %29.82 in10.0 miENE (60°)13.8 mph0.10 inScattered Clouds
6:53 AM77.0 °F73.4 °F89 %29.87 in10.0 miENE (60°)11.5 mphMostly Cloudy
6:58 AM76.6 °F76.1 °F98 %29.86 in10.0 miENE (60°)11.5 mphScattered Clouds
7:58 AM78.1 °F75.9 °F93 %29.86 in10.0 miENE (60°)9.2 mph20.7 mphScattered Clouds
8:58 AM80.1 °F75.6 °F86 %29.87 in10.0 miENE (60°)15.0 mphScattered Clouds
9:41 AM80.6 °F77.0 °F89 %29.91 in10.0 miNE (40°)13.8 mphMostly Cloudy
9:46 AM80.6 °F77.0 °F89 %29.91 in10.0 miNE (40°)11.5 mph21.9 mphScattered Clouds
9:55 AM80.6 °F77.0 °F89 %29.91 in10.0 miNE (50°)15.0 mph20.7 mphRainLight Rain
9:58 AM80.2 °F76.6 °F89 %29.88 in10.0 miNE (50°)17.3 mph21.9 mph0.00 inRainLight Rain
10:05 AM80.6 °F75.2 °F84 %29.91 in10.0 miENE (60°)17.3 mph23.0 mphScattered Clouds
10:58 AM83.1 °F75.6 °F78 %29.87 in10.0 miENE (70°)12.7 mph20.7 mph0.00 inClear
11:43 AM82.4 °F75.2 °F79 %29.89 in10.0 miENE (60°)11.5 mph20.7 mphLight Drizzle
11:48 AM82.4 °F75.2 °F79 %29.89 in10.0 miNE (50°)15.0 mph20.7 mphLight Drizzle
11:52 AM80.6 °F77.0 °F89 %29.89 in10.0 miENE (60°)12.7 mph20.7 mphMostly Cloudy
11:57 AM80.6 °F75.2 °F84 %29.89 in10.0 miNE (50°)15.0 mph20.7 mphScattered Clouds
11:58 AM80.8 °F75.9 °F85 %29.86 in10.0 miNE (50°)16.1 mph20.7 mph0.00 inScattered Clouds
12:13 PM82.4 °F75.2 °F79 %29.88 in10.0 miENE (60°)16.1 mph23.0 mphMostly Cloudy
12:18 PM82.4 °F75.2 °F79 %29.88 in10.0 miENE (60°)15.0 mphScattered Clouds
12:38 PM82.4 °F77.0 °F84 %29.87 in10.0 miENE (60°)16.1 mph24.2 mphMostly Cloudy
12:42 PM82.4 °F77.0 °F84 %29.86 in8.0 miENE (60°)20.7 mph25.3 mphRainLight Rain
12:55 PM78.8 °F77.0 °F94 %29.86 in9.0 miENE (60°)15.0 mphMostly Cloudy
12:58 PM78.6 °F76.8 °F94 %29.83 in10.0 miENE (60°)11.5 mph19.6 mph0.00 inMostly Cloudy
1:58 PM82.2 °F76.5 °F83 %29.81 in10.0 miENE (60°)16.1 mph24.2 mphScattered Clouds
2:03 PM80.6 °F73.4 °F79 %29.84 in10.0 miNE (40°)18.4 mph27.6 mphMostly Cloudy
2:13 PM80.6 °F73.4 °F79 %29.84 in10.0 miNE (40°)11.5 mphMostly Cloudy
2:58 PM81.5 °F75.9 °F83 %29.79 in10.0 miENE (60°)13.8 mph20.7 mphScattered Clouds
3:08 PM82.4 °F75.2 °F79 %29.82 in10.0 miNE (40°)13.8 mphMostly Cloudy
3:48 PM80.6 °F75.2 °F84 %29.82 in10.0 miNE (50°)15.0 mphScattered Clouds
3:58 PM81.0 °F74.7 °F81 %29.79 in10.0 miNE (50°)16.1 mphPartly Cloudy
4:07 PM82.4 °F77.0 °F84 %29.82 in10.0 miENE (60°)17.3 mph20.7 mphRainLight Rain
4:21 PM78.8 °F75.2 °F89 %29.83 in10.0 miNE (50°)12.7 mphPartly Cloudy
4:58 PM80.1 °F74.8 °F84 %29.81 in10.0 miNE (50°)15.0 mph21.9 mph0.00 inScattered Clouds
5:38 PM78.8 °F73.4 °F83 %29.85 in10.0 miNE (40°)17.3 mph21.9 mphMostly Cloudy
5:48 PM77.0 °F75.2 °F94 %29.85 in10.0 miNNE (30°)15.0 mph23.0 mphMostly Cloudy
5:58 PM77.7 °F75.4 °F92 %29.82 in10.0 miNNE (20°)9.2 mphMostly Cloudy
6:48 PM78.8 °F75.2 °F89 %29.86 in10.0 miNE (50°)13.8 mph20.7 mphMostly Cloudy
6:53 PM78.8 °F75.2 °F89 %29.87 in10.0 miNE (50°)16.1 mphMostly Cloudy
6:58 PM79.2 °F74.5 °F86 %29.84 in10.0 miNE (50°)16.1 mph21.9 mphScattered Clouds
7:07 PM78.8 °F75.2 °F89 %29.87 in10.0 miNE (50°)13.8 mph21.9 mphRainLight Rain
7:16 PM78.8 °F75.2 °F89 %29.87 in10.0 miNE (50°)17.3 mphMostly Cloudy
7:26 PM78.8 °F75.2 °F89 %29.88 in10.0 miNE (50°)18.4 mph24.2 mphMostly Cloudy
7:31 PM78.8 °F75.2 °F89 %29.88 in10.0 miNE (50°)15.0 mph24.2 mphMostly Cloudy
7:41 PM78.8 °F75.2 °F89 %29.88 in10.0 miNE (50°)16.1 mph24.2 mphMostly Cloudy
7:51 PM78.8 °F73.4 °F83 %29.88 in10.0 miNE (50°)16.1 mph25.3 mphMostly Cloudy
7:58 PM79.0 °F74.1 °F85 %29.86 in10.0 miNE (50°)16.1 mph23.0 mph0.00 inMostly Cloudy
8:03 PM78.8 °F73.4 °F83 %29.88 in10.0 miNE (40°)15.0 mph23.0 mphScattered Clouds
8:53 PM78.8 °F73.4 °F83 %29.89 in10.0 miNE (40°)16.1 mph24.2 mphMostly Cloudy
8:58 PM78.8 °F72.9 °F82 %29.87 in10.0 miNE (40°)13.8 mph24.2 mphMostly Cloudy
9:13 PM78.8 °F73.4 °F83 %29.90 in10.0 miNE (50°)16.1 mphMostly Cloudy
9:23 PM78.8 °F73.4 °F83 %29.90 in10.0 miNE (40°)16.1 mph20.7 mphMostly Cloudy
9:58 PM78.6 °F73.4 °F84 %29.87 in10.0 miNE (40°)15.0 mph21.9 mphMostly Cloudy
10:08 PM78.8 °F73.4 °F83 %29.90 in10.0 miNE (40°)16.1 mph24.2 mphScattered Clouds
10:53 PM78.8 °F73.4 °F83 %29.90 in10.0 miNE (50°)16.1 mph24.2 mphMostly Cloudy
10:58 PM78.4 °F73.2 °F84 %29.87 in10.0 miNE (50°)17.3 mph24.2 mphMostly Cloudy
11:13 PM78.8 °F73.4 °F83 %29.90 in10.0 miNE (50°)15.0 mphScattered Clouds
11:58 PM77.9 °F73.0 °F85 %29.86 in10.0 miENE (60°)15.0 mph24.2 mphPartly Cloudy
Hourly data recorded from PGUA, located miles away from Inarajan, Guam







STORIES FROM OUR PARTNERS